#timestamp,LO_Frequency,Hit,StdDev 
1536051615.1,286046997.7,P
1536051616.0,286046997.7,P
1536051635.8,286046999.4,N
1536051655.6,286046998.9,N
1536051675.5,286046997.8,N
1536051695.3,286046995.3,Y
1536051715.2,286046997.0,P
1536051735.9,286046999.3,N
1536051755.7,286046996.9,P
1536051775.6,286046999.1,N
1536051795.4,286046998.8,N
1536051815.3,286046996.6,Y
1536051835.1,286046998.8,P
1536051836.0,286046998.8,P
1536051855.8,286047000.3,N
1536051875.7,286046999.3,N
1536051895.5,286046999.4,N
1536051915.3,286046998.4,N
1536051935.2,286046998.2,N
1536051955.0,286047000.5,N
1536051955.9,286047000.5,N
1536051975.8,286047000.5,N
1536051995.6,286047000.7,N
1536052015.4,286046998.7,N
1536052035.3,286046996.9,Y
1536052055.1,286047011.9,P
1536052075.8,286046999.5,N
1536052095.7,286047001.0,N
1536052115.5,286046998.5,N
1536052135.4,286047000.6,N
1536052155.2,286047000.8,N
1536052175.0,286046999.4,N
1536052175.9,286046999.4,N
1536052195.8,286046999.2,N
1536052215.6,286046997.0,N
1536052235.4,286046997.8,N
1536052255.3,286046994.9,N
1536052275.1,286046995.2,N
1536052295.9,286046993.7,N
1536052315.7,286046996.4,N
1536052335.5,286046995.6,N
1536052355.4,286046993.4,N
1536052375.2,286046993.9,N
1536052395.0,286046994.4,N
1536052395.9,286046994.4,N
1536052415.8,286046994.4,N
1536052435.6,286046993.0,N
1536052455.5,286046993.6,N
1536052475.3,286046991.7,N
1536052495.1,286046991.7,N
1536052515.9,286046990.6,N
1536052535.7,286046991.6,N
1536052555.5,286046993.2,N
1536052575.4,286046992.4,N
1536052595.2,286046993.2,N
1536052615.0,286046992.8,N
1536052616.0,286046992.8,N
1536052635.8,286046990.4,Y
1536052655.6,286046995.6,P
1536052675.5,286046996.1,P
1536052695.3,286046993.7,P
1536052715.1,286046993.9,Y
1536052735.9,286046999.9,P
1536052755.7,286047002.0,N
1536052775.6,286047000.9,N
1536052795.4,286046998.1,N
1536052815.2,286046999.5,N
1536052835.1,286047001.2,N
1536052836.0,286047001.2,N
1536052855.8,286047001.1,N
1536052875.6,286047000.6,N
1536052895.5,286046996.6,N
1536052915.3,286046998.7,N
1536052935.1,286046998.5,N
1536052955.9,286047000.5,N
1536052975.7,286047001.1,N
1536052995.6,286046996.7,N
1536053015.4,286047000.8,N
1536053035.2,286046998.6,N
1536053055.1,286046996.7,N
1536053056.0,286046996.7,N
1536053075.8,286046995.8,N
1536053095.6,286046997.9,N
1536053115.5,286046996.9,N
1536053135.3,286046996.5,N
1536053155.2,286046997.7,N
1536053175.9,286046997.6,N
1536053195.7,286046995.7,N
1536053215.6,286046996.3,N
1536053235.4,286046993.4,Y
1536053255.2,286046996.1,P
1536053275.1,286046995.8,P
1536053276.0,286046995.8,P
1536053295.8,286046993.9,Y
1536053315.7,286046995.2,P
1536053335.5,286046993.8,P
1536053355.3,286046994.6,P
1536053375.2,286046992.1,Y
1536053395.0,286046997.5,P
1536053395.9,286046997.5,N
1536053415.7,286046995.2,P
1536053435.6,286046995.0,Y
1536053455.4,286047005.4,P
1536053475.3,286047003.0,N
1536053495.1,286047004.0,N
1536053515.8,286047004.3,N
1536053535.7,286047006.0,N
1536053555.5,286047004.3,N
1536053575.3,286046999.9,N
1536053595.2,286047002.5,N
1536053615.0,286047002.7,N
1536053615.9,286047002.7,N
1536053635.8,286047000.6,N
1536053655.6,286047000.4,N
1536053675.4,286046999.7,N
1536053695.3,286047002.5,N
1536053715.1,286047002.4,N
1536053735.9,286047000.9,N
1536053755.7,286046998.3,N
1536053775.5,286047011.9,Y
1536053795.4,286047000.5,P
1536053815.2,286046997.0,P
1536053835.0,286046997.5,N
1536053835.9,286046997.5,N
1536053855.8,286046997.8,N
1536053875.6,286046997.6,N
1536053895.5,286046996.0,N
1536053915.3,286046996.1,N
1536053935.1,286046993.9,Y
1536053955.9,286046995.6,P
1536053975.7,286046993.5,P
1536053995.5,286046992.3,P
1536054015.4,286046994.0,N
1536054035.2,286046993.4,Y
1536054055.1,286046998.4,P
1536054056.0,286046998.4,N
1536054075.8,286046999.0,N
1536054095.6,286046996.9,N
1536054115.5,286046998.4,N
1536054135.3,286046999.1,N
1536054155.2,286046999.2,N
1536054175.9,286047000.6,N
1536054195.7,286046998.3,N
1536054215.6,286046998.4,N
1536054235.4,286046999.4,N
1536054255.2,286046999.0,N
1536054275.1,286047000.9,N
1536054276.0,286047000.9,N
1536054295.8,286047000.4,N
1536054315.7,286047000.2,N
1536054335.5,286047000.9,N
1536054355.3,286046999.9,N
1536054375.2,286047002.7,N
1536054395.0,286047001.5,N
1536054395.9,286047001.5,N
1536054415.8,286047004.0,N
1536054435.6,286047004.1,N
1536054455.4,286047003.5,N
1536054475.3,286047001.4,N
1536054495.1,286047002.0,N
1536054515.8,286047001.8,N
1536054535.7,286047001.5,N
1536054555.5,286047005.0,N
1536054575.4,286047001.3,N
1536054595.2,286047002.5,N
1536054615.0,286047003.5,N
1536054615.9,286047003.5,N
1536054635.8,286047002.6,N
1536054655.6,286047002.8,N
1536054675.4,286047001.1,N
1536054695.3,286046998.5,N
1536054715.1,286046996.6,N
1536054735.9,286046996.5,N
1536054755.7,286046999.5,N
1536054775.5,286046998.5,N
1536054795.4,286047001.0,N
1536054815.2,286047001.0,N
1536054835.0,286046999.3,N
1536054835.9,286046999.3,N
1536054855.8,286046996.8,N
1536054875.6,286046997.3,N
1536054895.5,286046995.4,N
1536054915.3,286046997.4,N
1536054935.1,286046995.0,N
1536054955.9,286046995.3,N
1536054975.7,286046995.3,N
1536054995.5,286046995.2,N
1536055015.4,286046995.7,N
1536055035.2,286046996.4,N
1536055055.0,286046993.4,N
1536055056.0,286046993.4,N
1536055075.8,286046993.5,N
1536055095.6,286046994.0,N
1536055115.5,286046994.0,N
1536055135.3,286046994.5,N
1536055155.1,286046991.8,N
1536055175.9,286046991.7,N
1536055195.7,286046990.7,Y
